Location: Carlisle
(34.5501°N, 84.5969°W)
Time: 17:20:03
(UTC+00:00)

Hubble Space Telescope - Pass Details

Date: 03 December 2021
Orbit: 534 x 538 km, 28.5° (Epoch: 26 January)

Event Time Altitude Azimuth Distance (km) Brightness Sun altitude
Exits shadow 10:04:20 20° 149° (SSE) 1,277 3.0 -29.1°
Drops below altitude 10° 10:05:59 10° 132° (SE) 1,772 4.1 -28.8°
Sets 10:08:28 0° 120° (ESE) 2,661 5.4 -28.3°
